Regional Weather Roundup
Issued by NWS

Home | Current Version | Previous Version | Text Only | Print | Product List | Glossary Off
Versions: 1 2 3 4 5 6 7 8 9 10 11 12 13 14 15 16 17 18 19 20 21 22 23 24 25 26 27 28 29 30 31 32 33 34 35 36 37 38 39 40 41 42 43 44 45 46 47 48 49 50

000
ASUS43 KLSX 221557
RWRMO

WEATHER SUMMARY FOR MISSOURI
NATIONAL WEATHER SERVICE SPRINGFIELD MO
1100 AM CDT SAT JUL 22 2017

NOTE: "FAIR" INDICATES FEW OR NO CLOUDS BELOW 12,000 FEET WITH NO
       SIGNIFICANT WEATHER AND/OR OBSTRUCTIONS TO VISIBILITY.
       CURRENT SKY AND/OR WEATHER CONDITIONS ARE NOT AVAILABLE FOR
       CHILLICOTHE AND FARMINGTON.

MOZ001>031-035>038-043-044-053-054-221700-
...NORTHERN AND WESTERN MISSOURI...

CITY           SKY/WX    TMP DP  RH WIND       PRES   REMARKS
KANSAS CTY INT MOSUNNY   90  74  59 SW14      29.83F HX  99
LEE`S SUMMIT   SUNNY     91  73  55 SW18      29.84F HX  99
ST JOSEPH      SUNNY     89  75  63 W10       29.80F HX  99
CHILLICOTHE      N/A     90  76  63 SW7       29.81F HX 101

$$
MOZ066>068-077>081-088>096-101>105-221700-
...SOUTHWEST MISSOURI...

CITY           SKY/WX    TMP DP  RH WIND       PRES   REMARKS
SPRINGFIELD    SUNNY     90  71  53 SW15      29.96R HX  96
JOPLIN         SUNNY     92  74  55 SW18G25   29.94S HX 101
BRANSON        SUNNY     90  72  55 SW9       29.99F HX  96

$$
MOZ032>034-039>042-045>050-055>058-069>072-221700-
...CENTRAL MISSOURI...

CITY           SKY/WX    TMP DP  RH WIND       PRES   REMARKS
COLUMBIA       NOT AVBL
JEFFERSON CITY SUNNY     92  75  57 S7        29.87R HX 103
ROLLA          SUNNY     88  74  63 SW9       29.92S HX  96
SEDALIA        SUNNY     91  77  63 SW17G23   29.87S HX 104
WARRENSBURG    SUNNY     90  70  51 SW15G21   29.85S HX  95

$$
MOZ051-052-059>065-221700-
...EAST CENTRAL MISSOURI...

CITY           SKY/WX    TMP DP  RH WIND       PRES   REMARKS
ST LOUIS INTL  MOSUNNY   88  68  51 SE15G23   29.91F HX  91

$$
MOZ072>076-082>087-097>100-106>115-221700-
...SOUTH CENTRAL AND SOUTHEAST MISSOURI...

CITY           SKY/WX    TMP DP  RH WIND       PRES   REMARKS
CAPE GIRARDEAU SUNNY     90  76  63 SW9       29.94S HX 101
POPLAR BLUFF   SUNNY     91  78  65 W5        29.94S HX 106
WEST PLAINS    SUNNY     90  72  55 SW10      29.99S HX  97

$$



USA.gov is the U.S. government's official web portal to all federal, state and local government web resources and services.